Location: Nitra
(0.0000°N, 18.0833°E)
Time: 06:07:57
(UTC+01:00)

H-2A R/B - Pass Details

Date: 24 January 2021
Orbit: 734 x 836 km, 98.2° (Epoch: 04 March)

Event Time Altitude Azimuth Distance (km) Brightness Sun altitude
Rises 18:32:34 0° 152° (SSE) 3,159 5.1 -7.7°
Reaches altitude 10° 18:35:00 10° 144° (SE) 2,235 4.2 -8.3°
Maximum altitude 18:39:28 36° 78° (ENE) 1,159 2.4 -9.4°
Drops below altitude 10° 18:43:58 10° 12° (NNE) 2,251 4.1 -10.4°
Sets 18:46:25 0° 4° (N) 3,184 5.0 -11.0°
